Terug naar catalogus

CZ-2C DEB

ActiefSSO
NORAD 36090·DEBRIS·🇨🇳 China

Gelanceerd Nov 12, 2009 vanaf Jiuquan Satellite Launch Center

Loading…

Volgende Passages (komende 24 uur)

TLE

VersSource: Space-Track

Epoch: Sep 14, 2026, 09:04 UTC

1 36090U 09061C   26257.37835608  .00012411  00000-0  86566-3 0  9999
2 36090  97.8522 292.2014 0029114  43.7145 329.1492 15.05190347898105

Volg CZ-2C DEB in realtime met AllMySat

Download on the App Store